Volver al catálogo

THOR BURNER 2 DEB

LostPO
NORAD 25101·DEBRIS·🇺🇸 United States

Lanzado Jun 29, 1967 desde Vandenberg Space Force Base

Loading…

Próximos Pases (próximas 24 horas)

TLE

ObsoletoSource: Space-Track

Época: Dec 17, 2013, 05:24 UTC

1 25101U 67065D   13351.22551170 -.00000095  00000-0 -59669-1 0  9991
2 25101  90.3864 295.0340 0068856  57.0312 303.7121  8.37771014550594

Sigue THOR BURNER 2 DEB en tiempo real con AllMySat

Download on the App Store